WetterOnline ( https://www.wetteronline.de )

Wetter aktuell Lasa

Aktuelles Wetter: Reschenpass (1461m)

6-stündlich | Neueste Meldungen
Ortszeit Temperatur Wetter
Sa, 26.09. 8:00 4.0° C bedeckt
Sa, 26.09. 2:00 4.6° C wolkig
Fr, 25.09. 20:00 4.8° C bedeckt
Fr, 25.09. 14:00 6.2° C leichter Regen
Fr, 25.09. 8:00 10.0° C bewölkt
Fr, 25.09. 2:00 11.0° C leichter Regen
Do, 24.09. 20:00 13.4° C bedeckt
Do, 24.09. 14:00 13.0° C bedeckt
Ortszeit Temperatur Wetter
Sa, 26.09. 11:00 3.8° C wolkig
Sa, 26.09. 10:55 4° C leicht bewölkt
Sa, 26.09. 10:00 3.8° C bedeckt
Sa, 26.09. 9:55 4° C bewölkt
Sa, 26.09. 9:00 4.0° C bedeckt
Sa, 26.09. 8:55 4° C bewölkt
Sa, 26.09. 8:00 4.0° C bedeckt
Sa, 26.09. 7:55 4° C bewölkt
Sa, 26.09. 7:00 4.8° C wolkig
Ortszeit Relative Feuchte Sichtweite
Sa, 26.09. 8:00 90% 10 km
Sa, 26.09. 2:00 84% 10 km
Fr, 25.09. 20:00 95% 8 km
Fr, 25.09. 14:00 90% 6 km
Fr, 25.09. 8:00 94% 15 km
Fr, 25.09. 2:00 95% 5.0 km
Do, 24.09. 20:00 100% 6 km
Do, 24.09. 14:00 85% 12 km
Ortszeit Relative Feuchte Sichtweite
Sa, 26.09. 11:00 80% 10 km
Sa, 26.09. 10:55 81% >10 km
Sa, 26.09. 10:00 80% 8 km
Sa, 26.09. 9:55 81% 8 km
Sa, 26.09. 9:00 95% 8 km
Sa, 26.09. 8:55 93% 8 km
Sa, 26.09. 8:00 90% 10 km
Sa, 26.09. 7:55 93% >10 km
Sa, 26.09. 7:00 95% 10 km
Ortszeit Niederschlagsmenge Niederschlagsart
Sa, 26.09. 8:00 0.0 l/m2 in 12 Std. -
Sa, 26.09. 2:00 0.0 l/m2 in 6 Std. -
Fr, 25.09. 20:00 2 l/m2 in 12 Std. Schnee, Regen
Fr, 25.09. 14:00 0.1 l/m2 in 6 Std. Regen
Fr, 25.09. 8:00 10 l/m2 in 12 Std. Regen
Fr, 25.09. 2:00 8 l/m2 in 6 Std. Regen
Do, 24.09. 20:00 1 l/m2 in 12 Std. Regen
Do, 24.09. 14:00 0.0 l/m2 in 6 Std. -
Ortszeit Niederschlagsmenge Niederschlagsart
Sa, 26.09. 11:00 keine Meldung -
Sa, 26.09. 10:55 keine Meldung -
Sa, 26.09. 10:00 keine Meldung -
Sa, 26.09. 9:55 keine Meldung -
Sa, 26.09. 9:00 keine Meldung -
Sa, 26.09. 8:55 keine Meldung -
Sa, 26.09. 8:00 keine Meldung -
Sa, 26.09. 7:55 keine Meldung -
Sa, 26.09. 7:00 keine Meldung -
Ortszeit Stärke Spitze Richtung
km/h Bft. km/h Grad Sektor
Sa, 26.09. 8:00 9 2 - 60° NO
Sa, 26.09. 2:00 9 2 - 20° N
Fr, 25.09. 20:00 9 2 - 360° N
Fr, 25.09. 14:00 17 3 - 10° N
Fr, 25.09. 8:00 4 1 - 360° N
Fr, 25.09. 2:00 4 1 - 110° O
Do, 24.09. 20:00 13 3 - 200° S
Do, 24.09. 14:00 13 3 - 150° SO
Ortszeit Stärke Spitze Richtung
km/h Bft. km/h Grad Sektor
Sa, 26.09. 11:00 11 2 - 10° N
Sa, 26.09. 10:55 11 2 - 10° N
Sa, 26.09. 10:00 9 2 - 30° NO
Sa, 26.09. 9:55 9 2 30 30° NO
Sa, 26.09. 9:00 11 2 - 30° NO
Sa, 26.09. 8:55 11 2 - 30° NO
Sa, 26.09. 8:00 9 2 - 60° NO
Sa, 26.09. 7:55 9 2 - 60° NO
Sa, 26.09. 7:00 9 2 - 60° NO
Ortszeit Untergrenze Bedeckung Gattung
total tief tief mittel hoch
Sa, 26.09. 8:00 300 m 8/8 8/8 Cu - -
Sa, 26.09. 2:00 600 m 6/8 6/8 Cu - -
Fr, 25.09. 20:00 450 m 8/8 8/8 Cu - -
Fr, 25.09. 14:00 450 m 8/8 8/8 Cu - -
Fr, 25.09. 8:00 1050 m 7/8 7/8 Sc - -
Fr, 25.09. 2:00 210 m 8/8 8/8 St - -
Do, 24.09. 20:00 210 m 8/8 8/8 Sc - -
Do, 24.09. 14:00 300 m 8/8 8/8 St - -
Ortszeit Bedeckungsgrad in Achtel und Wolkenuntergrenze
Sa, 26.09. 11:00 1(450m) 3(750m)
Sa, 26.09. 10:55 1-2(450m) 3-4(750m)
Sa, 26.09. 10:00 3(450m) 5(750m)
Sa, 26.09. 9:55 3-4(450m) 5-7(750m)
Sa, 26.09. 9:00 3(300m) 5(600m)
Sa, 26.09. 8:55 3-4(300m) 5-7(600m)
Sa, 26.09. 8:00 3(300m) 5(600m)
Sa, 26.09. 7:55 3-4(300m) 5-7(600m)
Sa, 26.09. 7:00 6(900m)
Ortszeit Stationsdruck (hPa) Tendenz (hPa in 3 Std.)
Sa, 26.09. 8:00 833 + 0,2
Sa, 26.09. 2:00 833 - 0,2
Fr, 25.09. 20:00 834 + 0,8
Fr, 25.09. 14:00 833 - 1,0
Fr, 25.09. 8:00 838 - 2,3
Fr, 25.09. 2:00 843 - 2,1
Do, 24.09. 20:00 846 - 1,6
Do, 24.09. 14:00 848 0,0
Ortszeit Stationsdruck (hPa) Tendenz (hPa in 3 Std.)
Sa, 26.09. 11:00 834 + 0,9
Sa, 26.09. 10:55 - keine Meldung
Sa, 26.09. 10:00 833 + 0,1
Sa, 26.09. 9:55 - keine Meldung
Sa, 26.09. 9:00 833 + 0,1
Sa, 26.09. 8:55 - keine Meldung
Sa, 26.09. 8:00 833 + 0,2
Sa, 26.09. 7:55 - keine Meldung
Sa, 26.09. 7:00 833 0,0
Ortszeit Schneehöhe (cm)
Sa, 26.09. 8:00 0
Sa, 26.09. 2:00 -
Fr, 25.09. 20:00 -
Fr, 25.09. 14:00 -
Fr, 25.09. 8:00 0
Fr, 25.09. 2:00 -
Do, 24.09. 20:00 -
Do, 24.09. 14:00 -
Ortszeit Schneehöhe (cm)
Sa, 26.09. 11:00 -
Sa, 26.09. 10:55 -
Sa, 26.09. 10:00 -
Sa, 26.09. 9:55 -
Sa, 26.09. 9:00 -
Sa, 26.09. 8:55 -
Sa, 26.09. 8:00 0
Sa, 26.09. 7:55 -
Sa, 26.09. 7:00 -
Link zu dieser Seite / Seite empfehlen

Das Wetter in ...